Weather in Kulmbach

Germany     50°05′38″N   11°27′03″E
temp.,
°C
wind,
m/s
gust,
m/s
humid.,
%
clouds,
%
prec.,
mm/h
press.,
hPa
HPBL,
m
17 april, sat
sat1723:000nne119573 0.0 102510
02:00−1n229629 0.0 102522
05:00−2nne229463 0.0 102417
08:00+1nne2680100 0.0 1024363
11:00+2n2492100 0.5 1023452
14:00+4nne3584100 0.8 1022776
17:00+3nne3693100 0.1 1022577
20:00+1nne3798100 0.1 1022365
18 april, sun
sun1823:00+1ne259795 0.0 1023295
02:00+2n1399100 0.0 1022143
05:00+2n119997 0.1 102173
08:00+3nw1199100 1.9 102146
11:00+5nnw2394100 0.0 1021388
14:00+5nnw2494100 0.1 1020394
17:00+6n249299 0.1 1020489
20:00+5nnw2296100 0.1 102044
19 april, mon
mon1923:00+4nnw1196100 0.1 102028
02:00+3n1198100 0.1 102026
05:00+4n1199100 0.8 101948
08:00+5nw1196100 1.4 101953
11:00+6nnw2291100 0.1 1018413
14:00+9n337494 0.4 1017958
17:00+10nne2366100 0.4 10161009
20:00+7nne258899 0.9 1016115
20 april, tue
tue2023:00+6ne2496100 0.4 1016160
02:00+6ne1194100 0.6 101622
05:00+5nne119589 0.0 101513
08:00+6nne139126 0.0 1015172
11:00+10nne447279 0.4 10141115
14:00+13ne335128 0.7 10121669
17:00+13n335333 0.3 10111380
20:00+7nne23825 0.4 101243
21 april, wed
wed2123:00+4ene11875 0.0 101310
02:00+3e11905 0.0 101310
05:00+2se11915 0.0 101210
08:00+6sse11805 0.0 1012120
11:00+12ssw236163 0.1 1010971
14:00+14ssw345565 1.2 10081831
17:00+13ssw356684 1.8 10071330
20:00+8wsw2489100 4.1 100872